Location: Batesville
(34.7480°N, 83.6110°W)
Time: 11:08:47
(UTC-05:00)

Tiangong 1 - Visible Passes

Search period start: 23 January 2018 00:00
Search period end: 02 February 2018 00:00
Orbit: 261 x 286 km, 42.8° (Epoch: 23 January)

Date Brightness Start Highest point End Pass type
(mag) Time Alt. Az. Time Alt. Az. Time Alt. Az.
23 Jan 2.1 19:29:23 10° WNW 19:31:09 35° WSW 19:31:09 35° WSW visible
24 Jan 2.7 19:28:40 10° W 19:30:39 21° SW 19:30:58 21° SSW visible
25 Jan 3.7 19:28:31 10° WSW 19:29:19 11° SW 19:30:07 10° SSW visible
